sat.trackr.live / text

‹ back to catalog

STARLINK-35518

NORAD 66198 · 2025-243X

PAYLOAD ACTIVE UNKNOWN

§ Identity

Operator
Country
US
Launch date
2025-10-26
Launch site
AFETR
Launch vehicle
Mass (kg)
RCS (m²)

Purposes: comms

External: N2YO · Heavens-Above · Gunter

§ Orbital elements

Epoch: 2026-05-25T00:13:43.055904Z

Period
94.10 min
Inclination
53.1596°
Eccentricity
0.0001285
Mean motion
15.30207395 rev/d
Perigee alt
474.3 km
Apogee alt
476.1 km
Semi-major
6,853.3 km
B*
3.6978e-4
RAAN
251.1104°
Arg perigee
86.3831°
Mean anomaly
273.7317°
Rev number
3,233

§ Raw data

STARLINK-355181 66198U 25243X   26145.00952611  .00010611  00000+0  36978-3 0  99922 66198  53.1596 251.1104 0001285  86.3831 273.7317 15.30207395 32336

JSON: /api/v1/satellites/66198 · /tle

For live sub-satellite position, see the globe view (requires WebGL).

§ Visibility from observer

Set your observer location to see the next 7 days of passes ≥ 10°. The values pass through the URL so the page stays shareable.

No JS? Fill the form by hand. The geolocation button needs JavaScript.